,

(GMT )
Moosonee

Weather History for CYMO - September, 2013

Change the Weather History Date:

Monday, September 9, 2013

  Actual Average Record
Temperature  
Mean Temperature 58 °F -  
Max Temperature 69 °F 63 °F 80 °F (2002)
Min Temperature 46 °F 44 °F 32 °F (2006)
Degree Days  
Heating Degree Days 8    
Growing Degree Days 8 (Base 50)    
Moisture  
Dew Point 47 °F    
Average Humidity 79    
Maximum Humidity 93    
Minimum Humidity 49    
Precipitation  
Precipitation 0.00 in - - ()
Sea Level Pressure  
Sea Level Pressure 29.79 in    
Wind  
Wind Speed 10 mph ()    
Max Wind Speed 16 mph    
Max Gust Speed 22 mph    
Visibility 8.9 miles    
Events Rain    
Averages and records for this station are not official NWS values.
T = Trace of Precipitation, MM = Missing Value Source: Averaged Metar Reports

Daily Weather History Graph

Daily Weather History Graph

Search for Another Location

Airport or City:

Trip Planner

Search our weather history database for the weather conditions in past years. The results will help you decide how hot, cold, wet, or windy it might be!

Date:

Astronomy

Sep. 09, 2013 Rise Set
Actual Time 6:48 AM EDT 7:49 PM EDT
Civil Twilight 6:14 AM EDT 8:23 PM EDT
Nautical Twilight 5:33 AM EDT 9:04 PM EDT
Astronomical Twilight 4:49 AM EDT 9:48 PM EDT
Moon 11:43 AM EDT (9/9) 9:28 PM EDT (9/9)
Length of Visible Light 14h 09m
Length of Day
13h 01m
Waxing Crescent, 19% of the Moon is Illuminated
Sep 9
Waxing Crescent
Sep 12
First Quarter
Sep 19
Full
Sep 26
Last Quarter
Oct 4
New

Hourly Weather History & Observations

Time (EDT) Temp. Windchill Dew Point Humidity Pressure Visibility Wind Dir Wind Speed Gust Speed Precip Events Conditions
12:00 AM 53.6 °F - 44.6 °F 72% 29.78 in 9.0 mi SW 11.5 mph 17.3 mph N/A   Mostly Cloudy
12:04 AM 53.6 °F - 44.6 °F 72% 29.78 in 9.0 mi SW 12.7 mph 18.4 mph N/A   Scattered Clouds
12:55 AM 53.6 °F - 44.6 °F 72% 29.76 in 9.0 mi SW 11.5 mph - N/A   Mostly Cloudy
1:00 AM 53.6 °F - 44.6 °F 72% 29.76 in 9.0 mi SW 11.5 mph 17.3 mph N/A   Mostly Cloudy
2:00 AM 55.4 °F - 46.4 °F 72% 29.75 in 9.0 mi WSW 15.0 mph 20.7 mph N/A   Overcast
3:00 AM 53.6 °F - 46.4 °F 77% 29.75 in 9.0 mi WSW 11.5 mph 19.6 mph N/A   Overcast
4:00 AM 53.6 °F - 46.4 °F 77% 29.74 in 9.0 mi WSW 12.7 mph 19.6 mph N/A   Overcast
5:00 AM 53.6 °F - 46.4 °F 77% 29.73 in 9.0 mi WSW 13.8 mph 20.7 mph N/A   Overcast
5:42 AM 51.8 °F - 46.4 °F 82% 29.74 in 9.0 mi WSW 10.4 mph 17.3 mph N/A   Scattered Clouds
5:57 AM 51.8 °F - 46.4 °F 82% 29.74 in 9.0 mi WSW 10.4 mph 17.3 mph N/A   Mostly Cloudy
6:00 AM 51.8 °F - 46.4 °F 82% 29.74 in 9.0 mi WSW 11.5 mph 17.3 mph N/A   Mostly Cloudy
7:00 AM 50.0 °F - 46.4 °F 87% 29.74 in 9.0 mi WSW 12.7 mph 19.6 mph N/A   Mostly Cloudy
7:06 AM 50.0 °F - 46.4 °F 87% 29.74 in 9.0 mi WSW 10.4 mph 18.4 mph N/A   Scattered Clouds
8:00 AM 51.8 °F - 46.4 °F 82% 29.75 in 9.0 mi WSW 10.4 mph - N/A   Clear
9:00 AM 55.4 °F - 48.2 °F 77% 29.75 in 9.0 mi West 9.2 mph 17.3 mph N/A   Clear
10:00 AM 59.0 °F - 50.0 °F 72% 29.75 in 9.0 mi West 12.7 mph - N/A   Clear
11:00 AM 62.6 °F - 50.0 °F 63% 29.76 in 9.0 mi West 11.5 mph 18.4 mph N/A   Clear
12:00 PM 64.4 °F - 51.8 °F 64% 29.75 in 9.0 mi West 9.2 mph - N/A   Clear
1:00 PM 68.0 °F - 51.8 °F 56% 29.73 in 9.0 mi West 11.5 mph 17.3 mph N/A   Clear
2:00 PM 69.8 °F - 50.0 °F 49% 29.73 in 9.0 mi West 16.1 mph 21.9 mph N/A   Clear
2:28 PM 64.4 °F - 53.6 °F 68% 29.74 in 9.0 mi NNE 5.8 mph - N/A   Mostly Cloudy
3:00 PM 60.8 °F - 51.8 °F 72% 29.74 in 9.0 mi NE 9.2 mph 18.4 mph N/A   Mostly Cloudy
3:37 PM 57.2 °F - 50.0 °F 77% 29.76 in 9.0 mi ENE 12.7 mph - N/A   Scattered Clouds
3:57 PM 57.2 °F - 50.0 °F 77% 29.77 in 9.0 mi NE 10.4 mph 18.4 mph N/A   Mostly Cloudy
4:00 PM 57.2 °F - 50.0 °F 77% 29.78 in 9.0 mi NNE 10.4 mph 17.3 mph N/A   Mostly Cloudy
4:01 PM 57.2 °F - 50.0 °F 77% 29.78 in 9.0 mi NE 9.2 mph - N/A   Scattered Clouds
4:45 PM 55.4 °F - 48.2 °F 77% 29.78 in 9.0 mi ENE 12.7 mph 18.4 mph N/A   Mostly Cloudy
5:00 PM 53.6 °F - 48.2 °F 82% 29.78 in 9.0 mi NNE 11.5 mph 17.3 mph N/A   Mostly Cloudy
5:32 PM 53.6 °F - 46.4 °F 77% 29.79 in 9.0 mi NE 10.4 mph 19.6 mph N/A   Scattered Clouds
5:35 PM 53.6 °F - 46.4 °F 77% 29.79 in 9.0 mi NE 13.8 mph 20.7 mph N/A   Mostly Cloudy
5:37 PM 53.6 °F - 46.4 °F 77% 29.79 in 9.0 mi NE 12.7 mph 20.7 mph N/A   Scattered Clouds
6:00 PM 51.8 °F - 46.4 °F 82% 29.80 in 9.0 mi NE 15.0 mph 20.7 mph N/A   Scattered Clouds
6:31 PM 51.8 °F - 46.4 °F 82% 29.82 in 9.0 mi NE 10.4 mph 17.3 mph N/A   Mostly Cloudy
7:00 PM 50.0 °F - 44.6 °F 82% 29.83 in 9.0 mi NNE 9.2 mph 19.6 mph N/A   Overcast
8:00 PM 48.2 °F - 44.6 °F 87% 29.85 in 9.0 mi NNE 10.4 mph - N/A   Mostly Cloudy
9:00 PM 48.2 °F - 44.6 °F 87% 29.88 in 9.0 mi NE 8.1 mph - N/A   Overcast
10:00 PM 48.2 °F - 44.6 °F 87% 29.89 in 9.0 mi NE 6.9 mph - N/A   Overcast
10:05 PM 48.2 °F - 44.6 °F 87% 29.90 in 9.0 mi NNE 5.8 mph - N/A   Overcast
11:00 PM 48.2 °F - 44.6 °F 87% 29.91 in 9.0 mi NE 6.9 mph - N/A   Overcast
11:31 PM 46.4 °F 43.5 °F 44.6 °F 93% 29.92 in 9.0 mi NNE 5.8 mph - N/A   Overcast
11:32 PM 46.4 °F 42.4 °F 44.6 °F 93% 29.92 in 8.0 mi NNE 8.1 mph - N/A   Overcast
11:33 PM 46.4 °F 42.4 °F 44.6 °F 93% 29.92 in 8.0 mi NNE 8.1 mph - N/A   Overcast
11:35 PM 46.4 °F 42.9 °F 44.6 °F 93% 29.91 in 8.0 mi NNE 6.9 mph - N/A   Overcast
11:40 PM 46.4 °F 42.9 °F 44.6 °F 93% 29.91 in 8.0 mi NNE 6.9 mph - N/A Rain Light Rain